Temp
14 14 13 13 14 14 14 13 13 12 12 12 12 12 12 12 12 12 12 12 12 13 13 12 12 12 12 12 12 12 12 12 12 12 12 13 13 12 12 12 12 12 12 12 12 12 12 11 11 12 12 12 12 12 11 11 12 11 11 11 10 10 11
14 13 13 13 14 14 13 13 13 12 12 12 12 12 12 12 12 12 12 12 12 12 12 12 12 12 12 12 12 12 12 12 12 12 12 12 12 12 12 12 12 12 12 12 12 12 12 12 11 11 12 12 12 12 11 11 11 11 11 11 10 11 11
14 13 13 14 14 14 13 13 13 13 13 13 12 12 11 11 11 11 12 12 12 12 12 12 12 12 12 12 12 12 12 12 12 12 12 12 12 12 12 12 12 12 12 12 12 12 12 12 11 11 12 12 11 11 11 11 11 11 11 11 10 10 11
13 13 13 14 14 13 13 13 13 12 12 12 12 11 11 11 11 11 11 11 12 12 12 12 12 12 12 12 12 12 12 12 12 12 12 12 12 12 12 11 12 12 12 12 12 12 12 12 12 12 11 11 11 11 11 11 11 11 11 11 10 10 11
13 13 13 14 13 13 13 12 12 12 12 12 11 11 11 11 11 11 11 11 11 11 11 11 11 12 12 12 12 12 12 12 12 12 12 11 12 12 12 12 12 12 12 12 12 12 12 12 12 12 12 12 11 11 12 12 12 11 11 11 10 10 10
13 13 13 13 13 13 13 12 12 12 12 12 11 11 11 11 11 11 11 11 11 11 11 11 11 11 12 12 12 12 12 12 12 12 12 12 12 12 12 12 12 12 12 12 12 12 12 12 12 12 12 12 12 12 12 12 12 11 11 11 10 10 10
13 13 13 13 13 13 13 13 13 12 12 11 11 11 11 11 11 11 11 11 11 11 11 11 11 11 11 12 12 12 12 12 12 12 12 12 12 12 12 12 12 12 12 13 13 12 13 13 13 13 13 13 12 12 12 12 12 12 11 11 10 10 10
13 13 13 13 13 13 13 13 12 12 12 11 11 11 11 11 11 11 11 11 11 11 11 11 11 11 11 11 12 12 12 11 11 12 11 11 11 12 12 12 12 12 12 12 12 13 13 13 13 14 14 13 13 13 13 13 12 12 11 11 10 10 11
13 13 13 13 13 13 12 12 12 12 12 12 12 12 12 12 11 11 11 11 11 11 11 11 11 11 11 11 11 11 11 11 11 11 11 11 12 12 12 12 12 13 13 13 13 13 13 14 14 14 14 14 14 13 13 13 12 12 12 11 10 10 11
13 13 13 13 13 13 13 12 12 12 12 12 12 12 12 12 12 12 12 12 11 11 11 11 10 11 11 11 11 11 11 11 11 12 12 12 12 12 12 12 12 13 13 13 13 13 13 13 14 14 14 14 14 14 13 13 12 12 12 11 11 10 10
13 13 13 13 13 13 13 13 12 12 12 12 12 13 13 12 12 12 12 12 12 12 11 10 10 10 11 11 12 12 12 12 12 12 12 12 12 12 12 12 12 12 12 13 13 13 13 13 13 13 13 14 14 14 13 13 12 12 12 11 11 10 10
13 13 13 13 13 13 13 13 13 13 13 13 12 12 12 12 12 12 12 12 12 12 11 11 10 10 11 11 12 12 12 12 12 12 12 12 11 11 11 11 12 12 12 12 12 13 13 13 13 13 13 13 13 13 13 13 12 11 11 11 11 10 10
13 13 13 13 13 12 12 13 13 13 13 13 12 12 12 12 12 12 12 12 12 12 11 11 10 11 11 11 12 12 12 12 12 12 12 12 11 11 11 11 11 11 11 12 12 12 12 12 13 12 12 13 12 12 12 12 12 11 11 11 10 10 10
13 12 12 13 12 12 12 13 13 13 13 12 12 12 11 11 11 11 11 11 11 11 11 11 11 11 11 11 12 12 12 12 12 12 11 11 11 11 11 11 11 11 12 12 12 12 12 12 12 12 12 12 12 12 12 12 12 11 11 10 10 10 10
12 12 12 12 12 12 12 12 13 13 12 12 12 11 11 11 11 11 11 11 11 11 11 11 11 11 11 11 11 11 11 11 11 11 11 11 11 11 12 12 12 12 12 12 12 12 12 12 13 12 12 12 12 12 12 12 12 11 11 10 10 10 10
12 12 12 12 12 12 12 12 13 13 12 12 12 11 11 11 11 11 11 11 11 11 11 11 10 10 11 11 11 11 11 11 11 11 11 11 11 12 12 13 13 13 13 12 12 12 12 12 12 12 12 12 12 12 12 11 11 11 11 11 10 10 9
12 12 12 12 11 11 12 12 13 12 12 12 11 11 11 11 11 11 11 11 11 11 11 11 11 11 11 11 11 11 11 12 12 12 11 12 12 12 12 13 12 12 12 12 12 12 12 12 12 12 12 11 11 12 12 11 11 11 11 11 11 10 10
13 12 12 12 11 11 11 11 12 12 12 12 11 11 11 11 11 11 11 11 11 11 11 11 11 11 11 11 11 11 11 12 12 12 11 11 12 12 12 12 12 12 12 12 12 12 12 12 11 12 11 11 11 11 11 11 11 11 11 11 11 10 10
12 12 12 11 11 11 11 11 11 12 12 12 11 11 11 11 11 11 11 11 11 11 11 11 11 11 11 11 11 12 12 12 12 11 11 11 11 11 11 11 12 12 12 12 11 11 12 12 11 11 11 11 11 11 11 11 11 11 11 11 11 10 10
12 12 11 11 11 11 11 11 11 11 11 11 12 11 11 11 11 11 11 11 11 11 11 12 11 11 11 11 11 11 12 12 12 11 11 11 11 11 11 11 11 11 11 11 11 11 12 11 11 11 11 11 10 10 11 10 10 10 10 10 10 10 10
11 11 11 11 11 11 11 11 11 11 11 11 11 11 12 11 11 11 12 12 12 11 11 11 11 11 11 11 11 12 12 12 12 12 12 12 11 11 11 10 10 11 11 11 11 11 11 11 11 11 11 11 10 10 10 10 10 10 10 10 10 10 10
11 11 11 11 11 11 11 11 11 11 11 11 11 11 11 11 11 11 11 12 12 12 11 11 11 11 11 12 12 12 12 12 12 12 12 12 11 11 11 10 11 11 11 11 11 11 10 10 10 10 10 10 10 10 10 10 10 10 10 10 10 10 10
11 11 11 11 11 11 11 11 11 11 11 11 11 11 11 11 11 11 11 11 12 12 12 11 11 11 11 11 12 12 12 13 12 12 12 11 11 10 10 10 11 11 11 11 11 11 10 10 10 9 10 10 10 10 10 10 10 9 9 10 10 10 10
11 11 11 11 11 11 11 11 11 11 11 11 11 11 11 11 11 11 11 11 11 12 11 11 11 11 11 11 11 11 12 12 12 11 11 11 10 10 10 10 10 10 11 11 10 10 10 10 10 10 9 9 9 10 10 9 9 9 9 9 9 9 9
11 11 11 11 11 11 11 11 11 11 11 11 11 11 11 11 11 11 11 11 11 11 11 11 11 11 11 11 11 11 11 11 11 11 10 10 10 10 10 10 10 10 10 10 10 10 10 10 10 10 9 9 9 9 9 9 9 9 9 9 9 9 9
11 11 11 11 11 11 11 11 11 11 11 11 11 11 11 11 11 11 11 11 11 11 11 11 11 11 11 11 11 11 11 11 11 11 11 10 10 9 9 9 9 9 10 10 10 10 10 10 10 10 9 9 9 9 9 9 8 8 8 8 8 8 8
11 11 11 11 11 11 11 11 11 11 11 11 11 11 11 11 11 11 11 11 11 10 10 10 11 11 11 10 10 10 10 10 10 10 10 10 9 9 9 9 9 9 9 10 10 10 10 10 9 9 9 9 9 8 8 8 8 8 8 8 8 8 8
11 11 11 11 11 11 10 10 10 10 10 10 11 11 11 11 11 11 11 11 10 10 10 10 10 11 10 10 10 10 10 10 10 10 9 9 9 9 9 9 9 9 10 10 10 9 9 9 9 10 9 9 9 8 8 8 8 8 8 8 8 8 8
10 10 10 10 11 11 10 10 10 10 10 10 10 10 10 10 10 10 10 10 10 10 10 10 10 10 10 10 10 10 10 9 9 9 9 9 9 9 9 8 9 9 9 9 9 9 9 9 10 10 9 9 8 8 9 8 8 8 8 8 7 7 7
9 10 10 10 10 10 10 10 10 10 10 10 10 10 10 10 10 10 10 10 10 10 10 10 10 10 10 10 10 9 9 9 9 9 9 9 8 8 8 8 9 9 9 9 9 8 9 9 9 9 8 8 8 9 9 8 8 8 7 7 7 7 7
9 9 9 9 9 10 10 10 10 10 10 10 10 10 10 10 10 10 10 10 10 10 10 10 10 10 10 10 9 9 9 9 9 8 8 8 8 8 8 8 8 8 9 9 9 9 9 9 8 8 8 8 8 9 9 8 8 7 7 7 7 7 7
8 8 8 9 9 9 9 9 9 9 10 10 10 10 10 10 10 10 10 9 10 10 10 10 10 10 10 10 9 9 9 9 8 7 7 8 8 8 8 8 8 8 8 9 9 9 9 8 7 8 8 8 8 8 8 8 7 7 7 7 7 6 6
8 8 8 8 8 8 9 9 9 9 9 9 9 9 10 10 10 10 10 9 9 9 10 10 10 10 10 9 9 9 9 8 8 7 7 7 7 7 7 7 8 8 8 8 9 9 8 7 7 7 7 6 7 7 7 7 7 7 7 6 6 6 6
7 7 7 8 8 8 8 9 9 9 9 9 9 9 9 9 10 10 10 9 9 9 10 10 10 10 10 9 9 9 8 8 7 7 7 7 7 7 7 7 7 7 8 8 8 8 8 7 7 7 6 6 6 6 6 6 6 6 6 6 6 5 5
7 7 7 8 8 8 8 8 8 8 8 8 8 9 9 9 9 9 9 9 9 9 9 9 9 10 9 9 9 9 8 8 7 7 7 7 7 7 7 7 7 8 8 8 8 8 8 7 7 7 7 7 6 6 6 6 6 5 5 5 5 5 4
6 6 6 6 6 7 7 7 7 8 8 8 8 8 9 9 9 9 9 9 9 9 9 9 9 9 9 8 8 8 8 8 7 7 7 6 6 6 7 7 8 8 8 8 8 8 7 7 7 7 7 7 6 6 6 5 5 5 5 5 4 4 4
4 5 5 5 5 6 6 6 7 7 7 7 8 8 8 9 9 9 9 9 9 9 9 8 9 9 9 8 8 8 8 7 7 7 6 6 6 7 7 7 8 8 8 7 7 7 7 7 7 7 6 6 6 5 5 5 5 4 4 4 4 3 3
Height
1536 1537 1537 1537 1537 1537 1538 1538 1538 1539 1539 1540 1541 1541 1540 1539 1538 1538 1537 1536 1536 1536 1535 1535 1536 1537 1538 1539 1540 1541 1542 1543 1543 1543 1544 1544 1545 1547 1549 1550 1552 1553 1553 1554 1555 1556 1557 1559 1562 1563 1565 1566 1566 1567 1567 1568 1568 1569 1568 1568 1567 1567 1567
1536 1536 1536 1535 1536 1537 1537 1538 1538 1538 1538 1539 1539 1540 1540 1539 1538 1537 1536 1536 1536 1536 1536 1536 1536 1537 1539 1539 1540 1541 1542 1542 1543 1543 1544 1545 1546 1547 1549 1550 1551 1552 1552 1553 1555 1557 1557 1559 1561 1563 1564 1566 1566 1567 1568 1568 1569 1569 1569 1568 1568 1568 1568
1535 1535 1535 1535 1535 1536 1536 1537 1537 1537 1537 1537 1538 1539 1539 1538 1538 1537 1536 1535 1535 1535 1535 1536 1536 1537 1538 1539 1540 1541 1541 1542 1543 1543 1544 1545 1545 1547 1548 1548 1549 1550 1551 1553 1554 1556 1558 1559 1561 1563 1564 1565 1566 1568 1569 1569 1569 1570 1570 1570 1568 1568 1569
1535 1535 1534 1534 1534 1535 1536 1536 1536 1536 1536 1536 1537 1538 1538 1537 1536 1536 1535 1535 1535 1535 1535 1536 1536 1537 1538 1539 1540 1541 1541 1542 1543 1543 1544 1544 1545 1546 1547 1548 1549 1550 1551 1552 1554 1555 1557 1559 1560 1562 1564 1565 1566 1568 1569 1570 1570 1570 1570 1570 1570 1569 1569
1534 1534 1534 1534 1534 1535 1536 1536 1536 1536 1535 1536 1536 1536 1536 1536 1535 1535 1535 1534 1534 1535 1535 1536 1537 1537 1537 1538 1539 1540 1540 1541 1542 1543 1544 1544 1545 1546 1547 1548 1549 1550 1551 1552 1554 1555 1557 1558 1560 1561 1563 1565 1566 1568 1569 1570 1571 1571 1571 1571 1571 1570 1569
1532 1533 1534 1534 1535 1535 1535 1535 1535 1535 1535 1536 1536 1536 1536 1535 1534 1534 1534 1534 1534 1534 1535 1536 1537 1537 1537 1538 1539 1540 1540 1541 1542 1543 1544 1545 1546 1547 1548 1549 1550 1551 1552 1552 1553 1555 1557 1558 1559 1561 1562 1564 1566 1568 1569 1570 1571 1572 1572 1572 1571 1571 1570
1529 1531 1533 1534 1535 1535 1535 1535 1535 1535 1535 1535 1535 1535 1535 1534 1533 1533 1533 1533 1533 1534 1535 1536 1537 1537 1538 1538 1539 1540 1540 1541 1542 1543 1544 1546 1547 1548 1549 1550 1551 1552 1553 1553 1554 1555 1556 1557 1559 1560 1562 1563 1565 1566 1568 1570 1571 1571 1572 1572 1571 1571 1570
1526 1529 1531 1533 1534 1534 1534 1534 1535 1535 1535 1535 1534 1534 1533 1533 1532 1532 1531 1532 1532 1533 1535 1536 1537 1537 1538 1539 1540 1541 1542 1542 1543 1544 1545 1546 1548 1549 1550 1551 1552 1553 1553 1553 1554 1556 1556 1557 1559 1560 1561 1562 1564 1565 1567 1569 1570 1570 1571 1571 1571 1570 1570
1523 1526 1528 1530 1532 1533 1533 1533 1534 1534 1534 1533 1533 1533 1533 1532 1531 1531 1531 1531 1531 1533 1534 1536 1537 1537 1538 1539 1540 1541 1542 1543 1544 1544 1545 1547 1548 1549 1550 1551 1552 1553 1553 1554 1555 1556 1557 1558 1559 1560 1561 1562 1563 1564 1566 1567 1568 1570 1570 1570 1570 1569 1569
1521 1523 1525 1528 1529 1531 1532 1532 1532 1532 1532 1533 1533 1532 1532 1531 1530 1530 1530 1531 1531 1532 1534 1535 1536 1537 1538 1539 1540 1541 1542 1543 1544 1545 1546 1547 1548 1549 1550 1551 1551 1552 1553 1554 1555 1555 1557 1558 1559 1560 1561 1562 1562 1563 1564 1566 1567 1569 1570 1569 1569 1569 1569
1520 1521 1523 1526 1528 1529 1530 1530 1531 1531 1531 1532 1532 1532 1531 1530 1530 1530 1530 1531 1531 1532 1533 1535 1536 1537 1538 1539 1539 1541 1542 1543 1544 1545 1546 1547 1548 1549 1550 1550 1551 1552 1553 1554 1555 1556 1557 1558 1559 1560 1560 1561 1561 1562 1562 1564 1566 1568 1569 1569 1569 1569 1569
1518 1520 1522 1524 1526 1527 1529 1529 1529 1530 1530 1531 1531 1531 1531 1530 1530 1530 1531 1531 1532 1532 1533 1534 1536 1537 1537 1539 1540 1541 1541 1542 1543 1544 1545 1546 1548 1549 1550 1550 1552 1553 1554 1555 1556 1558 1559 1560 1560 1560 1560 1561 1561 1561 1562 1562 1564 1567 1568 1568 1568 1569 1569
1517 1519 1520 1522 1524 1526 1527 1528 1529 1529 1530 1530 1531 1531 1531 1530 1531 1531 1531 1531 1532 1533 1533 1534 1536 1536 1538 1539 1540 1541 1541 1542 1543 1544 1545 1547 1548 1549 1550 1551 1553 1554 1555 1556 1557 1558 1559 1560 1560 1560 1561 1561 1561 1562 1562 1562 1564 1566 1567 1568 1568 1569 1569
1517 1519 1520 1521 1523 1525 1527 1528 1529 1529 1530 1530 1530 1530 1531 1530 1531 1531 1531 1532 1532 1533 1534 1535 1536 1537 1538 1539 1540 1541 1542 1543 1544 1544 1546 1547 1548 1549 1550 1551 1553 1554 1555 1556 1558 1559 1560 1560 1561 1561 1561 1562 1562 1563 1563 1563 1564 1566 1567 1568 1568 1569 1569
1517 1518 1519 1520 1522 1524 1526 1527 1529 1530 1530 1530 1530 1530 1531 1531 1531 1532 1532 1533 1533 1533 1534 1535 1537 1538 1539 1540 1540 1542 1543 1543 1544 1545 1546 1548 1549 1550 1550 1551 1552 1554 1555 1556 1558 1559 1560 1561 1561 1561 1561 1562 1562 1563 1564 1564 1565 1565 1567 1567 1567 1568 1569
1516 1517 1518 1520 1522 1523 1525 1527 1529 1529 1530 1530 1530 1530 1531 1531 1531 1532 1533 1534 1534 1534 1535 1536 1537 1538 1539 1540 1541 1542 1543 1544 1545 1546 1547 1548 1549 1550 1550 1552 1553 1554 1555 1556 1557 1559 1560 1560 1561 1561 1561 1562 1563 1564 1565 1565 1565 1565 1566 1567 1567 1567 1568
1515 1517 1518 1521 1522 1523 1525 1527 1528 1529 1529 1529 1530 1530 1531 1531 1532 1533 1533 1534 1535 1535 1536 1536 1538 1539 1540 1541 1542 1543 1543 1544 1545 1546 1547 1548 1549 1550 1551 1552 1553 1554 1555 1556 1557 1559 1560 1560 1561 1561 1562 1562 1563 1564 1564 1564 1565 1565 1566 1566 1567 1567 1567
1515 1517 1519 1520 1522 1523 1525 1527 1528 1529 1529 1529 1529 1530 1530 1531 1532 1533 1534 1535 1535 1536 1536 1537 1539 1540 1542 1543 1543 1544 1544 1545 1546 1547 1548 1549 1549 1550 1551 1552 1553 1554 1555 1556 1558 1559 1560 1560 1561 1562 1562 1562 1562 1563 1564 1564 1565 1565 1566 1566 1566 1567 1567
1515 1517 1518 1520 1522 1523 1525 1527 1527 1528 1528 1529 1529 1530 1530 1531 1533 1534 1535 1535 1536 1537 1537 1538 1540 1542 1543 1544 1545 1545 1546 1546 1547 1548 1548 1549 1549 1550 1551 1552 1553 1554 1555 1556 1557 1558 1559 1560 1561 1562 1563 1562 1562 1563 1564 1564 1564 1565 1565 1565 1566 1566 1566
1515 1517 1518 1520 1522 1523 1524 1526 1526 1527 1527 1528 1528 1530 1530 1532 1533 1535 1536 1537 1537 1538 1538 1539 1541 1543 1544 1545 1546 1546 1547 1547 1548 1548 1549 1549 1550 1550 1551 1552 1552 1553 1554 1555 1556 1557 1558 1560 1560 1561 1562 1562 1563 1563 1563 1564 1564 1564 1565 1565 1565 1565 1565
1516 1517 1519 1520 1521 1522 1523 1524 1525 1526 1527 1527 1528 1529 1531 1532 1534 1535 1537 1538 1539 1539 1540 1541 1543 1544 1545 1546 1547 1547 1547 1548 1548 1548 1549 1549 1550 1550 1551 1551 1551 1552 1552 1553 1554 1555 1557 1558 1559 1560 1561 1562 1562 1562 1562 1563 1564 1564 1564 1564 1565 1565 1565
1516 1518 1518 1519 1520 1521 1522 1523 1523 1525 1527 1528 1529 1530 1531 1532 1533 1535 1536 1538 1539 1541 1542 1543 1544 1545 1546 1547 1547 1547 1548 1548 1548 1548 1549 1549 1549 1549 1549 1549 1549 1550 1550 1550 1552 1554 1555 1557 1558 1559 1560 1560 1560 1560 1561 1562 1563 1563 1564 1564 1564 1564 1564
1517 1518 1518 1519 1520 1521 1521 1522 1523 1524 1526 1527 1528 1528 1529 1530 1532 1533 1535 1537 1540 1541 1542 1544 1545 1546 1547 1547 1547 1547 1547 1547 1547 1547 1547 1548 1548 1548 1547 1548 1549 1549 1549 1549 1551 1552 1554 1555 1556 1557 1558 1559 1559 1559 1560 1561 1562 1562 1563 1562 1562 1562 1562
1517 1518 1518 1519 1520 1520 1521 1521 1522 1523 1524 1525 1526 1526 1527 1529 1530 1532 1533 1535 1537 1538 1539 1541 1543 1544 1545 1546 1546 1546 1546 1546 1546 1546 1546 1546 1547 1546 1546 1547 1548 1548 1549 1549 1550 1551 1551 1553 1554 1556 1557 1558 1558 1558 1559 1560 1560 1561 1561 1561 1561 1561 1560
1518 1518 1518 1519 1519 1520 1520 1521 1521 1522 1523 1524 1525 1525 1526 1527 1528 1530 1532 1533 1534 1534 1535 1537 1539 1541 1543 1544 1545 1545 1545 1545 1545 1545 1545 1545 1545 1544 1544 1546 1546 1547 1547 1548 1549 1549 1550 1551 1552 1553 1555 1556 1557 1557 1558 1558 1559 1559 1560 1560 1560 1559 1559
1519 1519 1518 1518 1519 1519 1520 1520 1520 1521 1521 1522 1523 1524 1524 1525 1527 1528 1530 1532 1532 1533 1535 1536 1537 1539 1540 1542 1543 1543 1542 1543 1542 1543 1543 1542 1541 1541 1543 1545 1545 1545 1546 1547 1547 1548 1548 1548 1549 1550 1552 1554 1555 1556 1556 1557 1557 1557 1558 1558 1558 1557 1557
1520 1520 1519 1519 1519 1519 1519 1519 1520 1520 1520 1521 1522 1522 1523 1524 1526 1527 1529 1530 1531 1532 1534 1535 1536 1537 1538 1539 1539 1539 1540 1540 1540 1540 1539 1538 1537 1538 1541 1543 1543 1543 1544 1545 1545 1545 1545 1546 1546 1548 1550 1551 1553 1555 1555 1555 1555 1555 1556 1556 1556 1555 1555
1521 1521 1520 1520 1519 1519 1519 1519 1519 1519 1519 1520 1521 1521 1522 1523 1524 1525 1527 1528 1528 1529 1531 1533 1534 1534 1535 1536 1536 1537 1537 1537 1537 1536 1535 1534 1536 1537 1539 1540 1540 1540 1541 1542 1543 1543 1543 1543 1545 1546 1547 1549 1550 1552 1553 1553 1553 1553 1553 1554 1554 1554 1553
1521 1521 1521 1521 1520 1520 1520 1520 1519 1519 1519 1519 1520 1520 1521 1521 1522 1523 1524 1525 1525 1525 1527 1530 1530 1531 1531 1532 1533 1533 1533 1533 1533 1533 1531 1532 1535 1535 1535 1536 1536 1537 1538 1539 1540 1541 1541 1542 1543 1544 1545 1546 1547 1548 1549 1550 1551 1551 1552 1552 1552 1552 1552
1520 1520 1521 1521 1521 1521 1520 1519 1519 1519 1518 1518 1518 1518 1519 1519 1519 1520 1521 1522 1522 1522 1523 1525 1527 1527 1527 1528 1529 1529 1529 1529 1529 1529 1529 1531 1532 1532 1532 1532 1533 1533 1535 1536 1537 1539 1539 1540 1542 1542 1543 1544 1545 1546 1547 1548 1549 1549 1550 1550 1550 1550 1551
1520 1521 1521 1521 1520 1519 1519 1518 1518 1517 1517 1517 1517 1517 1517 1517 1517 1517 1517 1518 1519 1519 1520 1521 1523 1523 1524 1524 1524 1525 1525 1526 1525 1525 1526 1528 1528 1528 1529 1530 1530 1531 1532 1533 1534 1536 1537 1539 1540 1541 1541 1542 1542 1544 1545 1546 1547 1547 1547 1548 1548 1549 1549
1521 1522 1521 1520 1519 1518 1517 1516 1516 1515 1515 1515 1515 1516 1516 1516 1516 1515 1515 1515 1516 1516 1517 1518 1519 1520 1520 1520 1521 1521 1522 1522 1522 1522 1523 1525 1525 1525 1526 1527 1528 1529 1530 1532 1533 1534 1535 1537 1538 1539 1540 1540 1541 1543 1544 1545 1545 1545 1546 1547 1547 1547 1547
1521 1521 1520 1519 1518 1517 1516 1515 1514 1514 1513 1513 1513 1513 1513 1514 1514 1514 1513 1512 1513 1513 1514 1515 1516 1516 1516 1517 1518 1518 1518 1519 1518 1519 1520 1521 1521 1521 1523 1524 1525 1527 1529 1530 1531 1532 1534 1535 1537 1538 1539 1540 1541 1542 1542 1543 1543 1543 1544 1545 1545 1545 1545
1518 1518 1517 1516 1515 1514 1513 1513 1512 1512 1511 1511 1510 1510 1510 1511 1511 1511 1511 1510 1509 1509 1510 1512 1513 1514 1513 1514 1514 1515 1515 1515 1516 1516 1517 1518 1518 1519 1520 1521 1522 1525 1527 1528 1529 1531 1532 1534 1535 1536 1538 1539 1540 1540 1540 1541 1542 1542 1542 1543 1543 1543 1543
1514 1513 1513 1512 1511 1511 1510 1510 1510 1509 1509 1508 1508 1508 1507 1507 1508 1508 1508 1508 1507 1505 1505 1507 1510 1510 1510 1510 1511 1511 1512 1512 1512 1512 1513 1514 1514 1515 1518 1520 1521 1523 1525 1527 1528 1529 1531 1533 1534 1535 1537 1538 1538 1539 1539 1540 1541 1541 1541 1541 1542 1542 1542
1509 1509 1508 1508 1508 1507 1506 1506 1506 1506 1506 1505 1505 1505 1504 1505 1505 1504 1504 1505 1504 1503 1502 1503 1505 1506 1506 1507 1507 1508 1508 1508 1508 1508 1509 1511 1512 1512 1515 1518 1520 1522 1524 1526 1527 1528 1530 1531 1533 1534 1536 1537 1537 1538 1538 1539 1539 1539 1540 1540 1540 1540 1540
1505 1505 1504 1504 1504 1503 1503 1503 1502 1502 1502 1502 1502 1502 1502 1502 1501 1501 1501 1501 1500 1500 1500 1500 1501 1503 1503 1503 1503 1504 1504 1504 1504 1506 1508 1510 1511 1511 1514 1517 1519 1520 1522 1524 1526 1527 1529 1530 1532 1533 1534 1535 1536 1537 1537 1537 1538 1538 1537 1537 1538 1538 1539
Wind_Speed
11 12 12 11 11 11 9 7 6 6 5 4 5 5 4 4 5 7 9 9 3 3 2 1 2 4 4 4 3 2 3 4 6 6 6 6 8 11 11 8 6 5 10 13 13 16 18 16 12 14 17 16 15 13 12 14 13 11 9 7 8 7 5
12 12 12 11 10 10 8 7 6 6 6 6 5 6 5 4 5 4 7 11 10 5 4 4 3 4 5 5 4 2 3 4 5 6 8 8 8 10 11 10 9 8 11 13 13 15 17 17 13 12 13 12 10 10 11 15 16 14 11 7 6 6 7
11 10 10 10 9 9 8 8 7 4 4 6 7 7 6 6 7 5 4 8 11 8 5 4 5 5 5 5 4 3 4 4 5 5 7 7 6 8 9 11 12 12 13 12 13 15 16 15 12 11 11 10 13 14 13 14 15 15 13 10 7 4 6
10 10 10 9 9 8 8 7 6 4 2 4 5 7 7 5 7 7 6 7 8 8 5 4 4 3 5 5 5 5 4 4 5 5 6 5 6 7 7 7 10 11 13 13 14 17 16 14 12 14 13 12 15 15 13 12 12 11 11 10 7 2 2
12 11 10 8 8 7 7 6 5 5 4 2 2 5 6 6 6 7 8 8 7 8 8 7 6 3 4 5 5 6 4 5 6 7 8 8 7 7 7 7 8 10 11 12 15 17 16 14 14 16 16 14 14 13 12 12 11 11 10 8 7 3 2
12 10 9 8 7 6 6 6 5 4 3 4 4 4 4 7 9 8 7 6 6 8 10 9 8 4 3 5 6 6 5 6 8 8 9 10 9 9 10 11 11 11 12 13 15 15 15 15 15 17 18 15 14 14 14 14 12 11 10 8 8 6 2
11 10 10 9 8 7 6 5 5 4 4 6 7 5 4 8 10 9 8 7 5 7 10 10 10 8 6 6 7 8 7 7 10 11 12 12 13 14 14 14 13 11 12 14 14 15 18 17 15 18 18 13 14 15 15 14 12 11 10 7 5 4 2
12 10 11 10 9 7 6 5 6 6 7 8 8 6 5 7 9 9 8 8 6 6 9 9 10 10 9 8 9 9 10 10 11 13 15 16 17 17 16 15 14 11 11 13 12 12 16 14 12 15 14 12 16 17 16 14 12 10 9 7 3 2 3
14 13 13 12 10 8 6 6 7 7 9 10 8 5 4 6 8 8 6 6 7 8 11 10 9 9 8 10 12 13 13 13 12 13 15 17 19 18 15 15 16 15 13 13 13 13 13 11 12 13 10 11 15 16 16 14 11 10 7 4 3 3 5
17 16 15 12 10 9 7 7 8 8 10 10 6 4 4 5 6 6 4 5 6 8 11 11 10 8 8 11 13 13 13 13 12 13 14 16 18 17 15 15 15 16 15 15 16 17 14 13 14 11 8 10 13 13 15 14 12 11 7 5 3 3 5
18 17 15 12 8 7 6 6 8 9 9 7 4 4 4 5 5 4 5 5 6 8 9 10 10 8 8 10 11 10 11 11 12 13 14 17 18 15 15 15 14 14 15 14 15 16 15 15 13 8 6 9 10 10 14 17 14 9 8 7 6 5 5
19 18 15 11 7 6 5 5 7 7 6 4 4 4 4 4 4 3 4 4 4 5 7 9 10 8 8 9 9 10 10 9 10 12 13 16 17 15 14 14 14 16 16 16 16 16 14 13 9 5 5 9 10 7 12 17 14 10 8 6 5 4 3
19 17 13 10 7 7 5 4 6 6 4 5 5 5 4 3 3 2 2 2 3 4 6 8 8 8 8 8 8 9 9 8 10 12 13 15 16 15 16 16 16 16 16 17 18 15 14 12 8 6 5 8 11 11 9 12 12 11 7 3 4 2 2
17 14 12 9 8 8 6 4 6 6 5 6 5 5 5 3 3 2 1 2 2 3 5 6 7 8 9 9 8 9 10 10 12 14 15 16 14 14 17 19 18 15 14 15 13 11 12 10 7 8 7 6 9 11 6 2 3 5 4 4 4 1 3
14 12 11 9 9 9 7 6 7 7 7 7 6 7 6 5 5 4 4 4 3 4 4 6 8 8 8 10 11 12 11 11 13 15 15 14 14 14 16 17 15 14 15 14 11 9 8 7 7 10 9 6 9 10 7 2 1 3 4 4 2 2 3
13 12 11 10 10 10 8 8 9 9 8 7 8 8 6 6 6 6 6 5 4 5 5 6 8 8 9 12 14 13 11 12 14 15 14 13 14 14 14 13 11 11 14 14 12 11 8 6 9 11 9 6 6 9 9 7 4 3 4 6 3 4 2
14 13 12 11 12 11 10 10 11 10 9 8 9 9 7 6 7 7 7 6 5 6 6 6 6 7 9 13 14 12 12 13 15 15 12 12 13 12 11 11 9 9 12 12 12 12 9 7 5 2 3 2 1 5 7 6 6 5 4 4 3 4 1
13 13 13 13 14 12 11 11 11 11 10 9 9 9 8 8 8 8 8 7 7 6 6 6 6 6 8 12 13 12 12 13 14 13 11 9 10 9 8 7 7 7 9 8 8 9 9 7 4 2 2 1 2 5 7 6 6 5 4 3 2 2 2
12 12 13 13 13 13 12 12 11 11 11 11 11 10 9 8 9 9 8 8 8 7 6 6 7 7 8 10 11 11 11 13 14 13 11 9 9 8 7 6 6 6 7 7 6 7 7 7 6 6 5 2 2 3 4 5 4 2 3 3 1 2 4
11 12 12 11 11 12 13 13 12 11 11 11 11 11 10 9 9 9 8 8 9 8 7 7 8 9 9 10 10 11 11 13 14 13 12 11 9 9 7 6 5 5 5 6 7 6 6 6 7 7 6 5 3 2 3 4 3 2 3 2 0 1 3
11 11 11 11 10 11 12 13 14 13 11 11 10 10 10 10 10 10 9 8 9 9 8 9 10 10 10 11 11 12 11 12 12 12 12 11 10 10 9 9 7 6 6 8 9 7 6 6 7 7 8 9 7 5 5 4 3 3 4 3 2 2 4
9 10 10 11 11 11 11 11 13 14 12 10 9 9 9 9 10 10 10 9 9 10 10 10 10 11 11 12 13 13 13 12 12 12 13 12 11 10 10 12 11 10 10 10 10 8 7 8 8 8 9 11 12 11 9 6 5 4 5 4 4 6 4
6 6 7 8 9 9 9 10 11 13 13 11 11 12 12 11 11 11 11 10 9 10 11 11 12 13 13 14 15 16 15 15 15 14 15 13 13 13 14 15 14 13 12 12 10 9 9 9 9 9 9 11 14 14 11 9 7 7 8 7 6 8 7
4 3 3 4 5 6 7 8 9 11 14 14 14 15 14 13 13 14 13 12 12 14 16 15 15 15 16 17 17 18 18 18 17 16 16 16 16 18 18 17 15 15 14 14 12 10 10 11 11 11 11 14 16 14 11 10 9 9 10 10 7 9 11
3 3 3 3 3 4 5 7 8 11 13 14 15 16 16 15 15 17 18 18 19 21 22 22 21 19 19 19 20 20 20 20 19 18 18 19 19 21 21 18 18 18 16 15 13 12 13 15 16 15 14 16 18 18 15 13 13 12 12 11 8 9 12
3 2 2 1 2 3 4 6 7 9 11 11 13 15 17 18 19 20 20 21 23 23 21 22 24 23 21 22 24 24 24 23 22 22 22 23 24 24 22 19 19 18 16 15 15 15 17 19 19 18 16 16 18 19 18 16 16 15 14 13 12 12 13
4 4 4 4 3 3 4 5 6 9 10 10 12 14 16 19 21 23 23 23 25 25 23 22 23 23 23 25 27 27 27 26 25 25 25 25 25 24 22 20 21 20 18 18 17 17 18 19 19 17 15 15 17 18 18 18 17 17 17 17 16 17 18
5 4 4 4 4 5 6 6 6 8 9 9 11 13 15 17 19 21 23 24 26 27 26 24 24 24 24 26 28 28 28 28 28 28 28 25 22 21 20 17 17 19 18 17 16 16 15 15 16 16 14 14 16 18 18 18 18 18 18 19 19 19 20
8 7 4 4 4 4 6 7 8 8 9 9 10 12 14 15 17 18 19 21 24 26 25 24 25 27 26 27 29 30 31 31 30 31 31 27 23 22 21 17 15 15 14 13 14 14 14 16 17 17 16 16 18 19 19 18 19 18 17 18 19 19 20
9 9 6 5 6 6 7 8 8 8 10 10 10 12 13 14 15 16 17 19 20 22 23 23 24 27 29 30 31 32 32 32 31 32 32 29 25 24 24 20 17 14 12 14 16 15 16 18 17 15 14 16 18 19 18 18 18 17 17 18 18 19 19
9 10 8 8 8 8 9 9 8 8 9 11 12 12 14 15 16 16 17 17 18 21 22 22 22 24 27 30 32 33 33 32 31 31 30 28 25 24 23 21 19 18 17 18 19 18 16 16 15 15 15 16 18 18 18 16 16 15 16 18 18 19 20
11 12 12 11 11 10 10 11 11 11 11 12 13 14 15 16 16 18 19 20 19 20 21 21 20 23 25 27 29 31 32 31 30 28 26 25 24 23 22 20 20 21 21 20 21 20 17 15 16 16 14 14 15 15 14 13 13 14 16 17 17 17 18
12 14 14 15 16 16 15 15 15 14 14 14 15 16 17 17 16 17 20 22 21 21 21 21 20 22 25 26 25 27 29 29 28 26 24 22 21 20 20 20 20 22 22 21 21 19 17 16 16 14 12 12 13 12 12 12 13 14 14 14 15 17 19
16 18 19 20 21 22 22 21 20 19 18 17 17 18 19 20 20 19 20 22 23 23 24 22 19 20 24 27 26 26 26 26 27 27 25 21 19 18 19 20 21 23 22 19 18 18 17 17 17 17 17 17 16 15 16 15 14 15 15 15 16 18 17
21 22 24 24 25 26 26 25 24 22 21 19 19 20 21 22 22 21 21 21 23 25 25 22 19 20 23 26 27 27 26 26 28 29 25 20 18 18 19 20 22 22 21 18 17 17 17 18 20 20 20 19 18 18 17 15 15 15 16 15 16 14 11
22 22 22 22 23 25 26 26 25 25 24 24 23 23 23 24 23 23 23 22 23 25 25 21 19 19 20 25 28 27 27 28 29 27 22 18 17 17 17 19 21 20 20 19 18 17 18 19 20 21 21 19 18 18 17 15 15 16 16 16 15 13 11
20 21 21 20 19 21 22 23 24 25 25 26 26 26 25 25 25 24 23 23 25 27 27 25 22 18 20 25 27 27 28 29 26 21 17 19 21 19 15 16 19 19 19 19 18 17 18 19 20 22 22 20 19 19 18 17 15 14 14 13 11 9 8
Wind_Direction
172 179 173 173 186 184 169 161 149 132 131 144 137 124 115 118 130 141 144 144 119 41 55 236 185 160 158 164 185 188 152 174 195 195 190 187 195 205 203 192 190 171 166 168 157 143 131 127 128 128 131 131 127 120 123 134 132 121 124 128 124 127 124
190 181 176 181 179 166 146 136 148 162 168 164 145 131 130 121 117 132 149 146 138 140 197 220 177 159 168 175 196 201 177 184 184 181 185 179 175 194 198 188 189 180 171 169 160 153 142 135 138 138 133 131 125 116 115 124 126 122 117 107 114 131 118
191 172 177 179 164 156 149 153 173 183 177 174 159 144 148 147 135 133 145 148 145 150 180 188 158 158 163 161 158 153 167 178 173 172 178 177 172 183 187 180 183 186 183 175 162 161 154 144 144 142 136 127 118 114 111 117 122 124 124 115 108 117 116
182 178 188 175 156 154 150 154 161 148 177 205 176 158 155 152 149 143 125 123 135 136 128 113 114 140 149 139 119 117 132 146 152 165 163 158 162 164 166 169 178 186 186 177 169 168 162 153 145 135 132 126 117 117 119 118 113 112 121 125 124 120 98
188 192 193 166 154 157 150 156 161 171 202 200 170 180 164 141 127 124 123 124 129 127 118 107 98 107 146 143 118 111 116 118 122 141 146 139 138 139 137 138 148 166 172 167 168 169 162 154 150 141 136 129 122 126 132 128 116 107 107 107 106 86 25
193 192 185 166 168 171 164 176 171 177 193 161 184 217 165 134 124 123 132 131 127 129 126 119 108 89 105 137 132 118 111 112 115 129 140 134 122 117 118 110 108 125 140 149 160 164 158 156 157 147 138 134 133 138 139 133 124 118 114 108 109 112 76
186 186 181 171 176 180 175 177 168 178 186 179 203 212 153 145 145 147 147 129 127 141 137 130 118 100 92 114 129 124 117 114 114 118 123 123 116 113 111 104 100 103 109 122 138 148 148 152 162 153 140 138 145 146 144 139 131 124 121 127 143 144 136
177 180 178 174 180 189 183 169 172 191 191 197 223 221 181 166 153 149 150 139 135 132 127 129 129 128 129 121 115 114 111 107 113 120 122 122 117 112 109 111 116 116 106 109 121 140 142 139 149 150 141 150 161 155 145 138 133 127 125 132 139 353 31
172 171 177 180 181 187 185 176 181 191 203 218 241 236 195 174 161 158 158 141 128 120 122 129 134 143 148 129 114 111 108 108 115 122 126 128 123 118 121 128 130 132 132 131 132 141 145 133 130 133 133 154 160 149 137 130 126 126 127 131 125 15 21
168 170 183 185 179 183 184 183 183 193 219 237 247 220 186 167 167 166 144 127 128 131 136 142 143 143 147 139 132 128 126 125 124 122 124 125 120 118 124 130 134 138 145 149 141 136 138 133 129 128 130 146 153 151 144 132 126 130 124 102 99 42 22
167 174 187 185 174 178 183 188 193 207 234 246 227 199 177 157 160 148 130 130 129 132 139 144 143 144 152 152 146 140 137 139 135 129 127 125 121 122 127 130 135 139 143 149 143 136 136 136 137 136 122 129 142 162 161 143 129 135 141 126 106 71 45
171 178 186 182 172 176 186 191 197 216 242 237 207 184 164 163 160 145 145 142 132 135 140 141 143 152 159 151 141 139 141 144 139 132 134 135 131 131 133 129 122 117 120 127 128 127 129 130 139 149 126 120 109 114 157 153 134 134 158 163 150 120 91
178 178 177 172 166 174 193 201 198 216 224 210 200 171 162 175 166 170 186 154 145 148 138 137 144 146 140 136 141 143 137 131 130 127 128 129 125 123 123 117 110 108 114 122 124 128 132 130 134 136 125 118 95 83 127 152 138 140 156 145 138 140 72
179 174 169 164 161 174 201 212 203 209 197 191 184 158 159 165 159 164 126 116 139 151 150 150 144 134 132 141 143 133 123 125 129 125 119 118 120 126 127 121 117 114 112 113 112 117 121 111 96 94 88 99 100 85 80 98 115 138 152 127 130 129 54
176 169 168 167 165 180 205 213 205 199 185 182 167 153 165 168 157 148 131 138 143 133 148 150 138 140 151 151 135 123 126 136 135 128 126 130 132 135 137 134 130 126 119 112 109 113 107 82 92 109 102 102 118 109 90 64 94 118 118 110 125 186 85
173 167 171 173 169 183 203 207 205 196 184 178 156 155 183 179 161 158 152 160 154 134 141 146 148 165 172 153 136 134 150 155 145 140 142 146 143 142 147 148 142 137 133 127 130 141 136 112 128 144 141 132 144 142 124 107 115 129 103 69 65 164 109
172 169 171 172 172 183 198 204 204 194 187 181 158 163 195 183 165 172 170 169 165 154 158 162 166 180 176 159 149 154 167 166 156 150 151 154 155 157 160 157 152 147 148 146 148 161 154 114 106 146 149 116 121 163 157 132 112 120 110 73 93 154 32
173 171 170 172 175 182 192 201 205 198 193 187 167 174 197 183 174 187 185 179 177 174 178 176 168 176 178 170 167 172 174 170 163 154 153 165 174 176 174 173 171 163 169 171 160 167 164 127 97 80 90 30 48 132 163 162 135 132 134 106 117 207 322
169 171 174 177 178 180 185 196 205 202 200 194 180 184 194 184 186 198 192 186 190 196 201 187 170 178 189 184 185 188 184 179 172 164 166 177 184 185 180 185 193 187 189 186 167 177 182 162 152 150 146 154 139 140 151 135 126 164 173 130 103 270 293
169 174 180 182 182 183 187 194 199 198 202 204 196 195 195 188 194 205 200 197 203 209 215 204 190 194 199 195 196 197 196 192 186 184 190 190 194 198 182 176 202 205 193 184 183 204 215 198 189 188 189 182 171 222 205 146 139 187 180 164 104 284 294
170 175 181 184 188 195 196 197 195 191 198 210 208 207 206 198 199 205 204 209 215 216 217 213 210 216 217 214 214 210 210 210 203 206 214 209 214 220 194 175 193 207 204 206 214 227 233 224 222 224 222 211 198 212 213 193 208 213 198 211 251 283 280
167 175 183 188 195 202 203 200 193 187 194 208 210 211 214 210 212 212 207 213 221 223 224 219 218 226 227 229 235 231 228 231 227 226 230 220 217 224 207 195 210 223 220 219 225 231 232 240 252 256 240 224 215 219 221 211 207 220 229 236 267 283 277
156 171 185 193 198 202 201 199 192 186 189 199 210 217 215 212 219 221 214 215 222 226 228 224 223 228 228 229 238 242 240 240 237 234 238 230 213 209 208 209 217 225 222 222 226 229 233 245 259 259 244 230 227 232 236 229 216 222 234 234 251 263 257
136 152 172 189 197 201 203 204 201 194 193 199 211 218 215 211 216 222 218 215 217 220 218 214 217 227 229 227 232 238 240 242 240 234 233 229 212 207 212 216 217 221 228 235 236 234 242 252 259 258 244 233 234 241 250 250 240 236 238 235 242 252 251
111 126 126 154 183 202 213 212 210 208 208 213 220 224 226 225 222 223 222 217 218 222 219 211 211 220 228 231 234 238 241 243 241 234 229 226 221 219 220 219 217 222 232 242 241 244 257 259 255 253 244 233 236 244 254 260 257 253 249 241 237 243 248
43 37 56 121 188 208 235 236 232 231 230 234 239 243 247 245 237 231 231 228 226 229 230 221 217 220 225 230 236 242 246 247 246 244 239 232 228 225 221 220 225 230 237 244 246 253 262 256 246 245 244 237 240 248 256 262 262 258 253 243 235 239 247
31 20 11 346 325 285 268 257 252 254 253 250 249 250 251 249 244 239 239 239 235 235 237 233 229 230 231 231 235 241 246 247 248 249 244 234 231 231 229 232 239 242 245 251 256 259 257 247 237 237 242 242 246 252 257 259 259 255 251 245 240 245 255
26 24 14 351 332 311 298 286 271 264 259 254 250 248 247 248 249 248 246 246 246 246 246 241 240 244 242 236 236 239 243 245 245 246 243 238 239 245 246 240 236 239 244 247 249 246 237 229 226 224 226 234 244 249 251 251 251 252 251 249 246 249 258
10 359 351 334 314 302 298 292 286 278 267 260 254 251 250 250 251 253 252 252 253 255 254 248 248 251 249 243 241 242 244 245 245 246 247 247 250 254 255 249 239 239 238 228 224 222 211 208 214 215 215 224 235 240 243 246 249 252 254 252 251 254 259
360 346 334 324 311 293 277 271 278 286 285 282 272 262 262 263 262 261 257 254 255 258 258 254 253 255 252 248 247 247 247 247 247 245 248 252 253 249 246 245 248 248 230 208 206 210 210 212 215 216 218 223 230 237 242 245 248 249 249 249 250 255 261
330 320 313 309 299 286 273 263 262 269 277 282 277 270 268 269 270 270 268 263 261 260 261 259 255 251 249 248 248 249 249 250 249 246 247 251 251 245 240 241 246 245 230 208 198 200 210 217 219 221 224 226 231 239 243 246 249 247 246 249 254 259 266
302 296 290 283 277 274 272 267 264 262 264 270 273 274 273 270 269 270 269 268 268 266 266 265 258 251 249 248 246 246 248 249 248 246 245 247 245 241 239 238 235 231 223 206 193 196 208 216 218 221 223 224 232 242 245 246 246 245 247 253 259 265 273
279 274 271 270 270 269 269 270 271 269 266 266 267 268 267 265 264 267 267 266 266 265 264 265 261 254 252 250 245 241 242 244 243 240 239 238 237 233 230 227 220 215 210 198 193 201 213 214 210 208 205 209 224 240 244 240 241 246 251 258 267 277 286
268 265 266 269 273 276 277 277 277 275 272 269 268 267 266 262 260 261 264 264 264 265 267 268 264 255 251 250 248 244 243 241 238 236 232 229 230 234 231 223 212 203 201 200 202 210 214 207 198 194 195 203 214 227 235 238 243 250 254 260 272 284 292
270 272 274 276 277 278 278 278 277 275 272 269 268 267 267 266 263 260 261 262 262 265 267 268 264 256 249 248 246 244 242 237 231 230 229 222 224 232 229 217 207 201 203 208 210 208 205 200 196 197 202 209 214 221 230 235 239 247 257 267 276 282 283
270 272 276 279 280 279 278 278 276 273 270 269 267 266 264 264 264 261 261 261 259 260 262 262 260 255 248 246 246 241 235 229 227 228 223 207 206 219 216 205 203 204 204 206 206 202 200 200 202 204 208 214 218 223 230 239 246 256 265 271 275 277 275
280 274 270 270 273 277 279 279 276 273 272 270 267 266 265 263 262 260 261 261 260 259 259 258 257 251 239 240 243 237 227 222 220 217 204 191 199 213 212 199 199 201 200 201 202 201 203 206 208 210 213 219 226 229 235 244 252 259 265 272 281 287 281